IRIDIUM 174

Last updated on Tue Sep 22 2026 00:03:21 GMT+0000 (Coordinated Universal Time)

1 56728U 23068U 26263.64744020 .00000369 00000+0 54667-4 0 9992 2 56728 86.6100 313.8044 0002595 90.7435 269.4080 14.72250521180066
UTC large
Height (km)
Speed (km/s)
/
Latitude / Longitude
Inclination (degrees)
Orbital Period (minutes)
Azimuth
Elevation
Range (km)
Doppler Factor

Next 0 passes for location: London (51.5072 / 0.1276)

No passes found over London.
IRIDIUM 174